Billings, MT

9:27 PM MST on February 07, 2016 (GMT -0700)
Billings Logan International

Weather History for KBIL - November, 2011

Change the Weather History Date:

Wednesday, November 23, 2011

  Actual Average Record
Temperature  
Mean Temperature 51 °F 32 °F  
Max Temperature 62 °F 41 °F 65 °F (1942)
Min Temperature 40 °F 23 °F -18 °F (1985)
Degree Days  
Heating Degree Days 14 33  
Month to date heating degree days 711 636  
Since 1 July heating degree days 1218 1388  
Cooling Degree Days 0 0  
Month to date cooling degree days 0 0  
Year to date cooling degree days 734 636  
Growing Degree Days 1 (Base 50)    
Moisture  
Dew Point 26 °F    
Average Humidity 41    
Maximum Humidity 57    
Minimum Humidity 25    
Precipitation  
Precipitation 0.00 in 0.02 in 0.36 in (1988)
Month to date precipitation 0.46 0.50  
Year to date precipitation 19.33 13.03  
Snow  
Snow 0.00 in 0.30 in 3.10 in (1988)
Month to date snowfall 6.5 4.8  
Since 1 July snowfall 6.5 10.0  
Since 1 September snowfall 6.5 10.0  
Snow Depth T in    
Sea Level Pressure  
Sea Level Pressure 29.81 in    
Wind  
Wind Speed 12 mph (SW)    
Max Wind Speed 22 mph    
Max Gust Speed 28 mph    
Visibility 10 miles    
Events      
T = Trace of Precipitation, MM = Missing Value Source: NWS Daily Summary

Daily Weather History Graph

Daily Weather History Graph

Search for Another Location

Airport or City:

Trip Planner

Search our weather history database for the weather conditions in past years. The results will help you decide how hot, cold, wet, or windy it might be!

Date:

Astronomy

Nov. 23, 2011 Rise Set
Actual Time 7:24 AM MST 4:35 PM MST
Civil Twilight 6:51 AM MST 5:09 PM MST
Nautical Twilight 6:14 AM MST 5:45 PM MST
Astronomical Twilight 5:39 AM MST 6:21 PM MST
Moon 5:30 AM MST (11/23) 3:20 PM MST (11/23)
Length of Visible Light 10h 17m
Length of Day
9h 11m
Waning Crescent, 3% of the Moon is Illuminated
Nov 23
Waning Crescent
Nov 24
New
Dec 2
First Quarter
Dec 10
Full
Dec 17
Last Quarter

Hourly Weather History & Observations

Time (MST) Temp. Windchill Dew Point Humidity Pressure Visibility Wind Dir Wind Speed Gust Speed Precip Events Conditions
12:53 AM 44.1 °F 36.8 °F 28.0 °F 53% 29.93 in 10.0 mi WSW 16.1 mph - N/A   Scattered Clouds
1:53 AM 46.0 °F 39.6 °F 28.0 °F 50% 29.91 in 10.0 mi WSW 15.0 mph - N/A   Scattered Clouds
2:53 AM 46.0 °F 39.6 °F 28.0 °F 50% 29.91 in 10.0 mi WSW 15.0 mph - N/A   Partly Cloudy
3:53 AM 46.9 °F - 27.0 °F 46% 29.89 in 10.0 mi WSW 16.1 mph - N/A   Scattered Clouds
4:53 AM 46.0 °F 39.9 °F 27.0 °F 47% 29.89 in 10.0 mi WSW 13.8 mph - N/A   Scattered Clouds
5:53 AM 44.1 °F 38.1 °F 27.0 °F 51% 29.92 in 10.0 mi WSW 11.5 mph - N/A   Partly Cloudy
6:53 AM 42.1 °F 36.1 °F 26.1 °F 53% 29.90 in 10.0 mi SW 10.4 mph - N/A   Partly Cloudy
7:53 AM 41.0 °F 35.8 °F 26.1 °F 55% 29.90 in 10.0 mi SSW 8.1 mph - N/A   Partly Cloudy
8:53 AM 43.0 °F 41.3 °F 28.0 °F 56% 29.88 in 10.0 mi ENE 3.5 mph - N/A   Partly Cloudy
9:53 AM 50.0 °F - 27.0 °F 41% 29.84 in 10.0 mi SSW 10.4 mph - N/A   Partly Cloudy
10:53 AM 54.0 °F - 28.0 °F 37% 29.82 in 10.0 mi South 9.2 mph - N/A   Partly Cloudy
11:53 AM 61.0 °F - 24.1 °F 24% 29.78 in 10.0 mi SSW 17.3 mph 20.7 mph N/A   Partly Cloudy
12:53 PM 60.1 °F - 25.0 °F 26% 29.77 in 10.0 mi WSW 11.5 mph 17.3 mph N/A   Partly Cloudy
1:53 PM 59.0 °F - 24.1 °F 26% 29.75 in 10.0 mi SW 13.8 mph 24.2 mph N/A   Partly Cloudy
2:53 PM 54.0 °F - 25.0 °F 33% 29.75 in 10.0 mi SW 13.8 mph - N/A   Partly Cloudy
3:53 PM 51.1 °F - 26.1 °F 38% 29.75 in 10.0 mi West 11.5 mph - N/A   Scattered Clouds
4:53 PM 50.0 °F - 26.1 °F 39% 29.74 in 10.0 mi WSW 5.8 mph - N/A   Partly Cloudy
5:53 PM 48.2 °F - 26.6 °F 43% 29.74 in 10.0 mi SW 10.4 mph - N/A   Partly Cloudy
6:53 PM 48.9 °F - 25.0 °F 39% 29.75 in 10.0 mi SW 13.8 mph - N/A   Clear
7:53 PM 48.9 °F - 25.0 °F 39% 29.74 in 10.0 mi WSW 13.8 mph - N/A   Clear
8:53 PM 48.0 °F - 24.1 °F 39% 29.74 in 10.0 mi WSW 10.4 mph - N/A   Clear
9:53 PM 45.0 °F 40.1 °F 24.1 °F 44% 29.72 in 10.0 mi West 9.2 mph - N/A   Partly Cloudy
10:53 PM 48.0 °F - 23.0 °F 37% 29.70 in 10.0 mi WSW 9.2 mph - N/A   Partly Cloudy
11:53 PM 43.0 °F 37.7 °F 24.1 °F 47% 29.70 in 10.0 mi SW 9.2 mph - N/A   Scattered Clouds